Regional Weather Roundup
Issued by NWS

Home | Current Version | Previous Version | Graphics & Text | Print | Product List | Glossary On
Versions: 1 2 3 4 5 6 7 8 9 10 11 12 13 14 15 16 17 18 19 20 21 22 23 24 25 26 27 28 29 30 31 32 33 34 35 36 37 38 39 40 41 42 43 44 45 46 47 48 49 50
000
ASUS45 KPSR 311600
RWRAZ

PRELIMINARY ARIZONA REGIONAL HOURLY WEATHER ROUNDUP
NATIONAL WEATHER SERVICE PHOENIX AZ
900 AM MST SAT JAN 31 2015

NOTE: FAIR INDICATES FEW OR NO CLOUDS BELOW 12,000 FEET WITH NO
SIGNIFICANT WEATHER AND/OR OBSTRUCTIONS TO VISIBILITY.

AZZ001>003-036-311700-
NORTHWEST ARIZONA

CITY           SKY/WX    TMP DP  RH WIND       PRES   REMARKS
KINGMAN        CLOUDY    46  44  93 N8        29.89R
$$

AZZ004>008-015-016-018-311700-
NORTH CENTRAL ARIZONA

CITY           SKY/WX    TMP DP  RH WIND       PRES   REMARKS
GRAND CANYON   PTSUNNY   37  36  96 CALM      29.92R
PRESCOTT       CLOUDY    43  40  89 NE3       29.89R FOG
FLAGSTAFF      CLOUDY    36  34  93 CALM      29.91R FOG
$$

AZZ009>014-017-311700-
NORTHEAST ARIZONA

CITY           SKY/WX    TMP DP  RH WIND       PRES   REMARKS
WINSLOW        NOT AVBL
SAINT JOHNS    CLOUDY    41  39  93 CALM      29.89R
WINDOW ROCK    CLOUDY    34  32  92 CALM      29.90S FOG
$$

AZZ023-311700-
GREATER PHOENIX AREA

CITY           SKY/WX    TMP DP  RH WIND       PRES   REMARKS
PHOENIX        CLOUDY    57  54  89 CALM      29.82R
GLENDALE       MOSUNNY   57  57 100 CALM      29.84R
LUKE AFB       PTSUNNY   57  54  88 NW2       29.82R
DEER VALLEY    CLOUDY    55  53  93 CALM      29.82R
SCOTTSDALE     CLOUDY    55  52  89 CALM      29.83R
MESA-GATEWAY   CLOUDY    54  54 100 CALM      29.85R
CHANDLER       CLOUDY    55  55 100 CALM      29.83R
$$

AZZ027-028-311700-
SOUTHWEST MARICOPA COUNTY AND PINAL COUNTY

CITY           SKY/WX    TMP DP  RH WIND       PRES   REMARKS
CASA GRANDE    CLOUDY    54  52  94 CALM      29.84R VSB 1/4
$$

AZZ503-504-507>509-311700-
SOUTHEAST ARIZONA

CITY           SKY/WX    TMP DP  RH WIND       PRES   REMARKS
TUCSON         LGT RAIN  52  49  89 SE5       29.87R
DAVIS-MONTHAN  RAIN      50  50 100 SE2       29.85R FOG
NOGALES        CLOUDY    49  46  90 S5        29.86S
SIERRA VISTA   LGT RAIN  45  44  97 CALM      29.88R
SAFFORD        LGT RAIN  48  46  93 SE7       29.87R FOG
$$

AZZ020-021-025-026-031-311700-
SOUTHWEST ARIZONA

CITY           SKY/WX    TMP DP  RH WIND       PRES   REMARKS
YUMA           CLOUDY    59  51  75 N8        29.84R
$$

CAZ031-033-041-043-047-048-061-311700-
SOUTHERN CALIFORNIA

CITY           SKY/WX    TMP DP  RH WIND       PRES   REMARKS
DOWNTOWN L.A.  PTSUNNY   59  54  83 CALM      29.89R
L.A. AIRPORT   PTSUNNY   57  55  93 CALM      29.89R FOG
SAN DIEGO      PTSUNNY   60  54  80 CALM      29.90R
BURBANK        PTSUNNY   54  51  90 CALM      29.88R
ONTARIO        MOSUNNY   54  50  86 CALM      29.89R
RIVERSIDE      SUNNY     51  49  92 CALM      29.89R FOG
PALM SPRINGS   PTSUNNY   59  49  69 SE5       29.88R
EL CENTRO NAS  PTSUNNY   56  49  77 NW5       29.85R
IMPERIAL       PTSUNNY   54  49  83 W3        29.84R
BLYTHE         CLOUDY    55  51  86 N5        29.85R
$$

NVZ020-UTZ003-311700-
SOUTHERN NEVADA-UTAH

CITY           SKY/WX    TMP DP  RH WIND       PRES   REMARKS
LAS VEGAS      NOT AVBL
SALT LAKE CITY PTSUNNY   38  31  76 NW6       30.02R WCI  33
$$

NMZ009-TXZ055-311700-
NEW MEXICO-WEST TEXAS

CITY           SKY/WX    TMP DP  RH WIND       PRES   REMARKS
ALBUQUERQUE    LGT RAIN  33  32  96 CALM      29.94S FOG
EL PASO        CLOUDY    46  43  89 N6        29.91S
$$


........................KEY........................
SKY/WX - SKY CONDITION/WEATHER
TMP    - TEMPERATURE IN FAHRENHEIT
DP     - DEW POINT IN FAHRENHEIT
RH     - RELATIVE HUMIDITY IN PERCENT
WIND   - DIRECTION AND SPEED IN MILES PER HOUR (MPH)
VRB    - VARIABLE WIND DIRECTION
PRES   - MEAN SEA LEVEL PRESSURE IN INCHES OF MERCURY
         F - FALLING PRESSURE   R - RISING PRESSURE
         S - STEADY PRESSURE
VSB    - VISIBILITY IN MILES
HX     - HEAT INDEX IN FAHRENHEIT
WCI    - WIND CHILL INDEX IN FAHRENHEIT
TC     - TEMPERATURE IN CELSIUS WHICH IS ALSO KNOWN AS
         TEMPERATURE IN CENTIGRADE
AFB    - AIR FORCE BASE
         LUKE AFB IS LUKE AIR FORCE BASE
         DAVIS-MONTHAN IS DAVIS-MONTHAN AIR FORCE BASE
NAS    - NAVAL AIR STATION
         EL CENTRO NAS IS EL CENTRO NAVAL AIR STATION
N/A    - NOT AVAILABLE


USA.gov is the U.S. government's official web portal to all federal, state and local government web resources and services.